Zurück zum Katalog

STARLINK-3608

AktivKommunikationVLEO
NORAD 51776·PAYLOAD·🇺🇸 United States

Gestartet Feb 25, 2022 von Vandenberg Space Force Base

Loading…

Nächste Überflüge (nächste 24 Stunden)

TLE

AktuellSource: CelesTrak SupGP

Epoche: Sep 15, 2026, 01:30 UTC

1 51776C 22017J   26258.06298611 -.00033361  00000+0 -95456-3 0  2581
2 51776  53.1584 197.1868 0001329  84.3702  27.1492 15.35412803    11

Verfolge STARLINK-3608 in Echtzeit mit AllMySat

Download on the App Store